Reflectivity
-20 -20 -20 -20 -20 -20 -20 -20 -20 -20 -20 -20 -20 -20 -20 -20 -20 -20 -20 -20 -20 -20 -20 -20 -20 -20 -20 -20 -20 -20 -20 -20 -20 -20 -20 -20 -20 -19 -20 -20 -20 -9 0 -15 -3 -13 7 7 -20
-20 -20 -20 -20 -20 -20 -20 -20 -20 -20 -20 -20 -20 -20 -20 -20 -20 -20 -20 -20 -20 -20 -20 -20 -14 -20 -20 -20 -20 -20 -20 -20 -17 -20 -14 -20 -2 3 -20 -20 -20 -1 6 5 -2 6 7 -2 -20
-20 -20 -20 -20 -20 -20 -20 -20 -20 -20 -20 -20 -20 -20 -20 -20 -20 -20 -20 -20 -20 -20 -20 -20 -16 -20 -20 -20 -20 -20 -20 -20 -20 -5 3 -1 0 -18 -20 -20 -20 6 -20 -20 -20 22 11 -18 -20
-20 -20 -20 -20 -20 -20 -20 -20 -20 -20 -20 -20 -20 -20 -20 -20 -20 -20 -20 -20 -20 -20 -20 -20 -20 -20 -20 -20 -20 -20 -9 -20 -20 -4 1 -3 12 -20 -20 -20 -20 -15 -19 -19 -19 -20 23 -20 -20
-20 -20 -20 -20 -20 -20 -20 -20 -20 -20 -20 -20 -20 -20 -20 -20 -20 -20 -20 -20 -20 -20 -20 -20 -20 -20 -20 -20 -20 -20 -20 -20 -19 -20 -7 -20 -20 -16 -20 -3 6 -20 -19 -16 -14 -8 -8 -20 -20
-20 -20 -20 -20 -20 -20 -20 -20 -20 -20 -20 -20 -20 -20 -20 -20 -20 -20 -20 -20 -20 -20 -20 -20 -20 -20 -20 -20 -20 -20 -20 -20 -17 20 -20 3 -20 7 15 9 20 21 19 8 0 -10 -20 -20 -20
-20 -20 -20 -20 -20 -20 -20 -20 -20 -20 -20 -20 -20 -20 -20 -20 -20 -20 -20 -20 -20 -20 -20 -20 -20 -20 -20 -20 -20 -20 -20 -20 -20 -20 -20 20 -10 -3 5 36 31 11 30 16 14 -13 -20 -20 -20
-20 -20 -20 -20 -20 -20 -20 -20 -20 -20 -20 -20 -20 -20 -20 -20 -20 -20 -20 -20 -20 -20 -20 -20 -20 -20 -20 -18 -7 -20 -20 -20 -20 -20 -20 -12 -14 -11 -11 32 23 39 32 33 18 33 -20 27 17
-20 -20 -20 -20 -20 -20 -20 -20 -20 -20 -20 -20 -20 -20 -20 -20 -20 -20 -20 -20 -20 -20 -20 -20 -20 -20 -19 4 4 1 -20 -20 -20 -20 -20 -18 -20 -19 -17 37 12 19 -8 31 24 12 -20 25 16
-20 -20 -20 -20 -20 -20 -20 -20 -20 -20 -20 -20 -20 -20 -20 -20 -20 -20 -20 -20 -20 -20 -20 -20 -20 -7 -15 -14 10 7 9 7 -14 -10 -20 -16 -20 -9 -20 11 -6 8 20 21 25 23 -16 25 -17
-20 -20 -20 -20 -20 -20 -20 -20 -20 -20 -20 -20 -20 -20 -20 -20 -20 -20 -20 -20 -20 -20 -20 -13 -11 -19 -0 -4 -0 12 6 12 13 26 -20 -20 -20 -20 -20 -20 -19 -9 14 20 30 -0 26 2 -2
-20 -20 -20 -20 -20 -20 -20 -20 -20 -20 -20 -20 -20 -20 -20 -20 -20 -20 -20 -20 -20 -20 -20 -20 -17 -16 -2 -19 3 0 -18 -0 0 24 24 -20 3 26 -20 -20 -20 -20 -13 30 35 -0 24 24 -5
-20 -20 -20 -20 -20 -20 -20 -20 -20 -20 -20 -20 -20 -20 -20 -20 -20 -20 -20 -20 -20 -20 -20 -20 -20 -9 -10 -14 1 -4 -5 1 2 5 20 -20 -20 -20 -20 -20 12 14 7 26 31 31 20 25 8
-20 -20 -20 -20 -20 -20 -20 -20 -20 -20 -20 -20 -20 -20 -20 -20 -20 -20 -20 -20 -20 -20 -20 -20 -20 -20 -15 -7 -12 -12 -9 -4 -4 2 -12 -20 -9 2 4 0 19 14 -5 31 32 37 -3 10 -20
-20 -20 -20 -20 -20 -20 -20 -20 -20 -20 -20 -20 -20 -20 -20 -20 -20 -20 -20 -20 -20 -20 -20 -20 -20 -20 -20 -20 -1 9 -20 6 6 -3 1 -20 -19 14 10 23 23 7 20 41 37 33 -17 8 -20
6 -13 -20 -20 -20 -20 -20 -20 -20 -20 -20 -20 -20 -20 -20 -20 -20 -20 -20 -20 -20 -20 -20 -20 -20 -20 -20 -8 -7 2 1 6 3 3 5 -3 -13 -2 19 10 24 22 7 26 36 34 5 -7 -20
-7 5 -1 -20 -20 -20 -20 -20 -20 -20 -20 -20 -20 -20 -20 -20 -20 -20 -20 -20 -20 -20 -20 -20 -20 -20 -20 -9 -5 3 -4 -9 -14 4 3 -7 -3 -3 -10 22 24 11 15 27 28 32 -20 1 -8
-5 -8 -7 -20 -20 -12 -20 -20 -20 -20 -20 -20 -20 -20 -20 -20 -20 -20 -20 -20 -20 -20 -20 -20 -20 -20 -20 -20 -20 -1 7 -1 -14 -20 -20 -20 3 2 22 20 25 -6 13 22 21 31 22 -20 -20
-13 -20 -20 -6 4 2 -18 -20 -20 -20 -20 -20 -20 -20 -20 -20 -20 -20 -20 -20 -20 -20 -20 -20 -20 -20 -5 -5 3 -10 10 8 2 2 -2 5 -15 -1 1 20 17 7 0 -7 24 17 21 7 -20
-20 -20 -20 -14 -1 -7 -20 -20 -20 -20 -20 -20 -20 -20 -20 -20 -20 -20 -20 -20 -20 -20 -20 -20 -20 -20 -5 -20 -20 -9 -3 4 3 -0 12 14 14 19 3 18 26 23 28 13 21 28 19 12 -18
-20 -20 -20 -20 -20 -20 -20 -20 -20 -20 -20 -20 -20 -20 -20 -20 -20 -20 -20 -20 -20 -20 -20 -20 -20 -20 -18 -20 -20 1 7 -6 3 11 15 -0 -6 -15 9 14 36 27 35 20 24 33 19 5 3
-20 -20 -20 -20 -20 -20 -20 -20 -20 -20 -20 -20 -20 -20 -20 -20 -20 -20 -20 -20 -20 -20 -20 -20 -20 -20 -3 -20 -11 -11 -20 -16 2 9 1 6 -5 6 2 31 25 33 31 30 28 35 -4 3 2
-20 -20 -20 -20 -20 -20 -20 -20 -20 -20 -20 -20 -20 -20 -20 -20 -20 -20 -20 -20 -20 -20 -20 -20 -20 -20 -13 -20 -20 -20 -3 -20 8 4 7 -5 -12 -20 4 31 28 30 33 35 28 33 16 3 -20
-20 -6 -9 -20 -11 -0 -20 -20 -20 -20 -20 -20 -20 -20 -20 -20 -20 -20 -20 -20 -20 -20 -20 -20 -16 -20 -4 -20 -20 -18 -1 0 7 10 -7 -0 2 3 -9 14 27 33 30 31 33 28 -19 -20 2
-20 -18 -9 -2 3 -20 -20 -20 -20 -20 -20 -20 -20 -20 -20 -20 -20 -20 -20 -20 -20 -20 -20 9 -4 -20 -18 -16 -20 -10 -2 3 -10 -6 -10 -11 -1 10 5 -3 21 34 36 28 30 27 7 9 7
-20 -20 -20 -7 -0 -5 -20 -20 7 -20 -20 -20 -20 -20 -20 -20 -20 -20 -20 -20 -20 -20 -14 13 -5 -20 -20 -20 -20 -19 -9 5 -10 -16 -16 -5 11 4 -11 15 1 18 26 31 30 26 30 13 9
5 7 -8 9 -14 3 -20 -20 -18 -20 -7 -20 -20 -20 -20 -20 -20 -20 -20 -20 -20 -20 -15 15 -4 -13 -20 -14 -20 -18 -4 -17 -20 -20 -10 10 19 18 25 -1 -4 8 5 27 31 32 33 32 24
-10 -20 13 13 10 8 -20 -20 7 3 -12 -20 -20 -20 -20 -20 -20 -20 -20 -20 -20 -18 -18 -9 -9 -12 -9 3 -18 -20 -10 -1 -11 -11 9 -3 -20 -8 -0 13 12 7 20 11 15 14 21 22 22
1 12 -0 1 0 17 6 -6 -20 -7 -18 -20 -20 -20 -20 -20 -18 -6 -12 -10 -20 -11 -3 9 -20 -20 -17 -9 -15 4 -19 -11 -14 -14 -4 5 -14 -20 9 -20 12 12 21 6 16 13 26 8 -3
19 6 23 19 21 1 7 6 -19 -20 -20 -20 -20 -20 -20 -20 -12 -13 10 13 2 0 7 6 -1 17 -0 -6 -19 -20 1 3 2 -20 11 10 11 1 5 -0 -9 -4 5 13 16 -9 12 -14 -15
Wind_Speed
10 10 5 6 8 7 13 5 6 5 4 2 1 8 6 7 6 3 4 10 9 14 13 16 11 11 10 11 10 11 15 17 18 19 18 19 19 18 17 16 16 16 19 19 20 18 19 18 16
10 8 6 3 10 13 10 5 10 6 1 4 7 10 9 11 3 1 9 9 12 12 12 13 14 10 9 11 11 11 14 16 17 18 18 18 18 19 18 17 16 18 19 19 20 20 19 18 16
12 9 6 7 12 16 12 6 8 5 2 3 4 5 3 1 3 3 5 13 12 12 11 12 13 11 10 12 10 12 14 16 16 17 17 18 18 19 19 16 16 18 19 20 20 19 19 17 16
8 7 5 12 18 9 15 5 5 5 4 1 3 7 3 2 1 4 10 14 12 11 11 15 13 12 11 11 11 11 15 12 14 16 19 19 21 20 17 15 16 18 19 18 17 18 18 16 17
7 5 13 16 21 18 11 9 6 10 4 5 8 10 6 4 5 6 11 14 13 11 10 14 12 12 12 11 12 11 12 11 14 16 20 21 18 17 17 17 18 16 17 16 17 19 16 17 17
8 6 13 18 20 13 17 16 13 13 14 12 11 8 8 5 7 8 12 14 12 12 11 12 13 12 12 12 11 11 10 10 9 12 14 15 18 19 17 14 12 13 15 13 17 18 17 16 16
16 11 19 21 19 9 16 10 12 15 14 15 2 8 5 4 2 3 10 12 12 10 11 10 13 14 10 11 10 10 10 10 11 10 10 11 11 13 12 6 6 7 4 14 18 18 19 17 17
11 10 21 17 15 19 17 9 12 11 14 2 4 6 4 9 6 5 9 11 12 11 11 10 12 11 12 12 10 8 8 8 7 7 8 11 13 17 16 15 14 13 12 12 17 17 18 17 16
11 11 16 19 14 13 10 10 6 6 11 12 8 6 7 7 5 6 10 12 11 10 11 11 11 11 9 11 11 10 8 8 10 12 15 13 10 14 15 14 17 17 15 19 16 17 17 15 15
15 15 21 16 11 14 12 13 13 11 13 13 13 14 6 6 6 7 13 14 14 12 11 10 10 12 11 8 8 11 12 10 11 11 13 11 12 13 14 14 17 19 17 19 20 18 19 18 13
13 21 15 11 13 15 16 16 15 15 19 16 17 17 11 12 10 10 13 16 16 12 9 10 9 10 12 9 6 4 3 4 7 14 11 9 10 11 10 9 6 9 15 10 11 13 13 15 11
15 14 17 16 15 17 19 20 22 21 19 17 21 17 15 16 15 15 15 15 16 15 13 12 11 11 11 6 6 6 5 4 5 9 14 8 7 10 11 7 11 7 6 12 11 9 13 14 15
17 18 16 16 18 20 20 23 25 24 17 21 20 18 16 17 18 17 15 14 16 16 15 14 13 12 9 8 6 5 6 6 8 10 12 9 9 10 11 9 8 8 6 10 11 12 12 12 13
8 9 13 13 16 18 20 22 21 18 18 22 25 23 19 20 19 17 13 16 16 17 18 16 15 13 12 12 9 6 6 8 9 9 12 13 9 9 10 9 8 8 6 10 11 12 12 12 12
11 17 17 18 17 17 17 20 25 23 21 22 22 21 20 20 19 16 16 15 15 16 17 17 16 15 13 12 10 8 6 8 8 8 11 11 8 10 11 9 9 9 10 8 8 10 11 12 10
8 11 14 6 7 8 8 15 5 6 11 15 17 17 16 19 18 16 15 14 14 16 19 17 14 16 13 11 9 7 6 7 7 8 8 13 12 9 7 7 8 11 9 9 7 11 12 12 10
10 11 12 13 12 13 13 14 6 7 13 17 15 14 14 14 17 15 13 12 14 17 19 19 18 17 15 12 9 9 8 6 6 6 7 10 11 10 9 10 9 12 9 11 7 9 12 11 11
7 13 11 12 5 14 21 23 20 21 17 17 15 17 15 14 15 15 10 10 13 16 17 18 16 16 14 9 9 7 7 6 6 5 5 9 8 11 11 7 10 11 10 9 7 10 11 12 11
13 15 17 17 16 20 22 22 19 18 20 20 18 18 17 16 15 16 10 9 13 15 18 20 19 18 12 11 10 8 8 7 5 7 10 11 10 10 10 7 11 11 12 13 12 10 15 11 11
18 18 18 16 13 12 18 24 23 24 22 21 21 19 18 16 18 17 14 10 14 17 19 19 19 19 15 11 10 7 7 5 7 8 11 12 13 15 12 8 12 14 11 13 13 14 12 11 13
16 15 14 15 15 18 20 23 10 5 14 18 21 23 20 18 18 17 17 14 14 17 20 20 20 20 17 14 9 8 6 4 6 7 7 6 7 11 13 14 8 16 14 12 14 14 16 12 13
13 9 11 11 10 8 4 9 11 10 8 10 14 15 18 20 18 18 17 17 17 17 18 19 20 19 17 17 13 14 9 8 8 6 5 5 7 9 12 15 14 10 11 13 13 13 13 14 14
7 4 7 9 11 13 15 10 5 6 4 10 6 11 15 18 19 17 16 17 16 16 18 18 19 19 18 16 14 11 11 7 5 5 8 6 4 4 7 10 14 13 9 14 16 15 15 12 12
2 5 9 10 9 9 15 10 3 6 11 11 13 12 10 9 11 14 13 12 14 16 17 15 17 19 19 16 15 13 13 10 7 6 5 6 4 5 6 6 8 11 9 12 11 14 14 11 11
10 5 3 7 6 8 4 8 10 9 9 10 12 13 13 13 11 11 8 11 14 19 18 15 18 19 18 17 14 13 13 11 10 9 5 7 5 3 6 7 6 7 9 10 9 10 11 11 10
12 12 6 6 5 2 4 8 6 4 7 12 12 14 16 18 16 12 7 9 13 17 16 16 19 19 18 16 14 11 12 8 8 8 7 6 5 6 10 7 9 9 9 10 9 7 7 8 9
8 9 4 5 11 8 9 6 7 6 11 14 17 18 18 19 20 16 6 9 12 15 15 15 19 18 17 15 13 11 11 12 9 9 8 6 6 8 10 11 9 10 10 11 11 8 9 9 10
8 6 5 5 5 6 6 8 3 7 11 15 17 18 17 17 19 19 8 6 9 13 14 15 19 18 18 16 13 10 11 11 10 8 9 8 7 8 9 10 10 11 12 12 12 9 8 9 7
7 5 6 1 5 5 4 2 5 6 8 12 13 12 13 15 17 17 9 4 7 11 12 11 14 16 16 15 14 13 11 10 9 8 9 9 9 8 10 9 9 11 12 11 11 11 11 11 8
6 6 10 5 5 3 6 3 7 5 4 7 5 9 10 12 15 15 15 4 9 11 12 11 13 13 14 13 12 12 11 10 8 8 9 8 9 9 9 11 10 10 11 12 12 12 12 15 13
Wind_Direction
188 205 220 220 241 235 254 241 293 205 212 171 305 230 226 328 197 0 90 140 148 156 156 171 172 166 169 164 158 159 166 172 170 169 171 165 161 158 153 152 153 151 149 151 152 151 145 137 129
169 169 205 243 249 237 238 215 240 233 345 286 256 243 243 237 248 83 146 150 151 154 159 172 172 164 160 154 150 155 167 172 173 170 171 165 163 157 157 157 159 156 154 157 157 150 141 136 131
170 200 229 228 239 245 253 178 264 145 311 243 232 250 241 224 182 189 101 152 146 155 155 155 162 162 158 153 158 162 170 173 180 169 169 166 164 162 161 160 160 161 159 158 156 147 137 134 129
175 183 222 240 241 238 262 250 244 195 148 111 333 256 223 289 204 193 149 155 158 152 162 131 164 164 164 162 166 169 179 167 168 170 168 169 176 170 157 154 159 162 166 158 155 144 135 129 127
211 230 236 230 245 248 233 268 234 249 268 287 319 276 271 201 206 182 167 166 163 161 166 160 169 171 172 176 173 173 177 173 174 177 182 181 176 159 160 162 162 157 167 164 151 138 133 130 130
197 255 238 241 240 226 248 251 243 256 262 264 274 288 271 22 219 182 172 175 166 164 165 163 174 178 171 180 181 176 176 180 178 202 188 176 168 172 170 172 172 166 168 164 145 135 135 132 130
240 220 248 258 260 238 241 267 232 255 268 269 189 258 278 359 281 200 181 174 164 161 167 162 183 184 175 180 188 186 181 180 182 190 195 175 170 152 127 146 121 112 235 159 144 141 139 136 133
229 250 256 253 256 241 240 235 253 252 257 82 253 232 231 360 342 211 188 177 172 166 167 175 179 185 191 196 182 195 189 178 180 174 126 142 129 141 162 148 162 162 190 163 153 147 140 139 133
228 239 243 244 236 253 236 242 214 277 258 241 240 279 348 348 351 211 195 192 187 181 186 170 175 179 187 195 190 184 198 169 152 138 139 141 167 169 165 169 172 182 166 161 156 152 137 138 136
216 237 246 258 252 254 254 258 269 248 237 226 240 240 244 289 314 249 219 204 208 191 192 191 185 182 187 192 186 207 204 203 203 178 170 174 172 178 174 179 186 177 165 162 155 154 144 160 156
222 248 263 244 251 258 261 264 254 250 249 252 258 264 277 260 287 262 245 233 212 202 189 218 194 194 192 185 186 179 179 183 192 182 169 183 180 180 196 185 198 180 178 170 146 161 169 168 163
257 240 262 262 257 255 258 266 265 255 252 266 259 266 264 265 269 261 251 236 223 203 196 190 192 197 196 188 186 185 167 171 173 194 178 172 189 189 193 179 195 181 172 162 169 182 169 173 162
242 259 265 263 261 263 270 263 266 265 260 251 258 260 256 257 257 255 250 245 228 213 199 191 184 191 182 193 178 171 173 178 184 190 185 180 190 188 188 192 196 169 175 166 179 175 169 172 164
288 278 274 269 270 265 264 265 260 255 254 252 254 255 249 249 250 253 250 241 233 211 207 190 184 191 194 204 185 177 175 183 187 190 188 187 181 187 193 200 188 166 167 182 171 172 167 171 163
271 273 272 262 258 250 269 263 251 258 256 253 252 252 245 246 247 246 251 249 232 214 206 191 181 184 200 202 195 187 179 186 180 184 188 184 200 188 196 206 182 163 166 153 176 179 172 167 169
276 271 269 272 238 224 227 273 218 210 238 246 246 248 243 238 238 239 245 239 225 207 199 186 183 181 191 198 198 191 171 185 187 186 180 186 191 195 206 197 188 165 162 168 175 184 174 170 167
225 265 262 278 237 278 245 281 307 266 278 271 265 262 253 247 242 235 238 231 217 199 192 182 184 182 181 195 193 196 169 183 174 176 184 192 193 196 200 206 180 159 158 174 161 194 177 171 169
229 236 248 264 262 283 284 275 273 267 262 263 269 262 256 245 239 235 233 214 200 192 190 181 185 180 169 178 179 185 169 185 175 183 188 185 193 198 204 195 171 160 161 162 168 185 191 174 168
264 268 274 280 281 281 278 277 276 273 263 253 247 254 244 242 244 244 229 204 191 189 187 183 180 178 164 180 171 180 192 183 190 198 206 207 197 200 207 200 178 161 166 168 173 181 180 173 169
250 260 270 282 272 276 283 284 283 265 256 253 248 244 248 254 248 240 230 201 196 188 187 183 182 174 179 183 174 177 183 196 205 212 214 215 212 211 199 200 193 171 165 169 170 186 176 175 175
236 251 265 277 292 277 276 282 253 259 249 251 248 249 245 251 252 245 241 211 194 195 188 184 181 179 177 178 161 177 167 175 202 222 221 229 228 219 210 203 201 169 162 168 173 189 178 166 179
238 231 253 270 281 278 10 291 299 288 301 260 253 251 242 238 242 243 248 210 201 198 185 182 181 177 175 167 170 184 192 190 205 206 191 204 230 227 214 188 174 179 162 166 175 191 181 176 178
246 183 245 263 268 292 269 252 253 241 314 4 345 309 246 247 248 255 238 225 201 187 179 182 175 175 172 170 181 181 194 194 199 174 167 168 152 169 170 174 170 166 169 169 176 187 188 178 181
200 218 242 253 258 250 247 233 255 38 358 338 351 341 353 328 302 289 265 227 194 181 170 167 171 173 169 177 180 186 187 186 190 162 164 159 164 159 136 128 165 149 153 157 177 181 184 176 189
211 213 236 200 205 253 133 227 280 20 9 359 355 351 341 338 332 321 258 206 185 176 155 161 167 167 166 183 176 186 191 180 192 160 151 148 152 143 143 144 143 147 148 153 161 176 181 187 191
214 214 246 266 240 245 175 240 106 70 30 14 4 358 353 346 340 334 266 204 182 173 153 165 167 161 164 178 169 176 198 169 185 180 173 168 165 165 157 154 160 158 146 156 158 169 186 198 201
167 217 291 268 239 261 246 203 181 58 34 16 13 7 354 350 342 345 296 182 180 161 162 166 166 161 162 170 163 175 187 163 176 182 189 182 184 164 176 171 168 162 164 164 168 166 186 202 203
255 136 186 207 238 236 199 247 128 34 23 8 2 2 354 352 346 341 5 170 163 147 167 174 172 162 162 168 164 173 182 178 169 179 173 175 183 174 178 177 177 172 170 171 169 163 185 191 198
171 190 222 274 282 298 302 144 105 78 18 339 357 358 355 358 347 343 341 111 148 154 165 156 156 161 163 166 167 172 175 174 161 171 183 180 177 183 169 169 168 175 173 173 179 181 185 202 190
233 197 212 246 156 301 312 318 113 147 313 347 10 11 1 11 355 350 358 81 122 141 143 151 151 157 156 161 167 168 167 166 172 190 196 174 171 177 174 164 169 167 180 183 187 188 198 212 215